TimeCDT,TemperatureF,Dew PointF,Humidity,Sea Level PressureIn,VisibilityMPH,Wind Direction,Wind SpeedMPH,Gust SpeedMPH,PrecipitationIn,Events,Conditions,WindDirDegrees,DateUTC
12:54 AM,55.9,44.1,64,29.82,10.0,NW,19.6,26.5,N/A,,Clear,320,2012-10-14 05:54:00
1:54 AM,55.9,43.0,62,29.83,10.0,NW,18.4,24.2,N/A,,Clear,320,2012-10-14 06:54:00
2:54 AM,55.0,43.0,64,29.89,10.0,NW,17.3,-,N/A,,Clear,310,2012-10-14 07:54:00
3:54 AM,53.1,44.1,71,29.93,10.0,NNW,12.7,-,N/A,,Clear,330,2012-10-14 08:54:00
4:54 AM,53.1,42.1,66,29.95,10.0,NNW,16.1,-,N/A,,Partly Cloudy,330,2012-10-14 09:54:00
5:54 AM,52.0,42.1,69,29.98,10.0,NW,17.3,-,N/A,,Clear,320,2012-10-14 10:54:00
6:54 AM,51.1,41.0,68,30.03,10.0,NNW,15.0,-,N/A,,Clear,330,2012-10-14 11:54:00
7:54 AM,50.0,39.9,68,30.07,10.0,NW,13.8,-,N/A,,Clear,320,2012-10-14 12:54:00
8:54 AM,53.1,39.9,61,30.12,10.0,NW,12.7,-,N/A,,Clear,320,2012-10-14 13:54:00
9:54 AM,57.9,41.0,53,30.17,10.0,NW,16.1,-,N/A,,Clear,320,2012-10-14 14:54:00
10:54 AM,63.0,42.1,46,30.16,10.0,NNW,17.3,-,N/A,,Clear,340,2012-10-14 15:54:00
11:54 AM,66.9,41.0,39,30.14,10.0,NNW,19.6,-,N/A,,Clear,330,2012-10-14 16:54:00
12:54 PM,68.0,41.0,37,30.13,10.0,NNW,19.6,25.3,N/A,,Clear,340,2012-10-14 17:54:00
1:54 PM,70.0,39.9,33,30.10,10.0,NW,18.4,24.2,N/A,,Clear,310,2012-10-14 18:54:00
2:54 PM,72.0,37.0,28,30.09,10.0,NNW,16.1,26.5,N/A,,Clear,340,2012-10-14 19:54:00
3:54 PM,73.0,37.0,27,30.08,10.0,North,17.3,-,N/A,,Clear,360,2012-10-14 20:54:00
4:54 PM,73.0,37.0,27,30.06,10.0,NNW,11.5,20.7,N/A,,Clear,340,2012-10-14 21:54:00
5:54 PM,72.0,37.0,28,30.07,10.0,NNW,11.5,-,N/A,,Clear,340,2012-10-14 22:54:00
6:54 PM,64.9,41.0,42,30.09,10.0,NNW,5.8,-,N/A,,Clear,340,2012-10-14 23:54:00
7:54 PM,61.0,39.9,46,30.09,10.0,Calm,Calm,-,N/A,,Clear,0,2012-10-15 00:54:00
8:54 PM,60.1,39.0,46,30.10,10.0,Calm,Calm,-,N/A,,Clear,0,2012-10-15 01:54:00
9:54 PM,55.0,41.0,59,30.11,10.0,South,4.6,-,N/A,,Clear,190,2012-10-15 02:54:00
10:54 PM,54.0,41.0,62,30.10,10.0,WSW,5.8,-,N/A,,Clear,250,2012-10-15 03:54:00
11:54 PM,53.1,41.0,64,30.10,10.0,SW,4.6,-,N/A,,Clear,230,2012-10-15 04:54:00